Flag for Japan Weather past 2 weeks in Sendai, Japan

Now
39 °F

Passing clouds.


Feels Like: 33 °F
Forecast: 33 / 45 °F
Wind: 9 mph from West

Location: Sendai Airport

Current Time: Feb 28, 2015 at 7:53:22 AM

Latest Report: Feb 28, 2015 at 7:00 AM


Visibility: N/A

Pressure: 30.15 "Hg

Humidity: 56%

Dew point: 25 °F

Location of SendaiLocation

Historic Weather in Sendai — Graph

°F

Sendai temperature yesterday

Maximum temperature yesterday: 46 °F (at 12:00 PM)
Minimum temperature yesterday: 36 °F (at 7:00 PM)
Average temperature yesterday: 40 °F

Past Weeks' High & Low Weather Summary

 TemperatureHumidityPressure
High61 °F (Feb 23, 1:00 PM)100% (Feb 18, 7:00 AM)30.39 "Hg (Feb 18, 7:00 AM)
Low28 °F (Feb 14, 7:00 AM)29% (Feb 16, 3:00 PM)29.50 "Hg (Feb 13, 7:00 AM)
Average40 °F67%29.94 "Hg
* Reported Feb 13 7:00 AM — Feb 28 7:00 AM, Sendai, Weather by CustomWeather, © 2015

Note: Actual official high and low records may vary slightly from our data, if they occured in-between our weather recording intervals... More about our weather records

Advertising

Sendai weather history for previous 24 hours

 ConditionsComfort  
Time TempWeatherWind HumidityBarometerVisibility
7:00 AM
Sat, Feb 28
39 °FPassing clouds.9 mph56%30.15 "HgN/A
6:00 AM36 °FPassing clouds.10 mph60%30.09 "HgN/A
9:00 PM
Fri, Feb 27
37 °FSnow flurries. Passing clouds.15 mph65%29.86 "HgN/A
8:02 PM36 °FSnow flurries. Passing clouds.28 mph75%29.80 "HgN/A
8:00 PM36 °FSnow flurries. Passing clouds.28 mph75%29.80 "HgN/A
7:00 PM36 °FSnow flurries. Passing clouds.25 mph81%29.83 "HgN/A
6:03 PM37 °FPassing clouds.21 mph60%29.80 "HgN/A
6:00 PM37 °FPassing clouds.23 mph60%29.80 "HgN/A
5:02 PM39 °FPassing clouds.23 mph52%29.77 "HgN/A
5:00 PM39 °FPassing clouds.23 mph52%29.77 "HgN/A
4:00 PM41 °FPassing clouds.23 mph57%29.74 "HgN/A
3:02 PM43 °FPassing clouds.23 mph57%29.71 "HgN/A
3:00 PM45 °FPassing clouds.23 mph53%29.71 "HgN/A
2:00 PM43 °FSprinkles. Scattered clouds.20 mph66%29.68 "HgN/A
1:01 PM46 °FScattered clouds.29 mph40%29.65 "HgN/A
12:00 PM46 °FPassing clouds.23 mph43%29.68 "HgN/A
11:00 AM41 °FSprinkles. Partly sunny.13 mph81%29.68 "HgN/A
10:00 AM41 °FScattered showers. Partly sunny.18 mph76%29.68 "HgN/A
9:00 AM39 °FPassing clouds.17 mph87%29.68 "HgN/A
8:00 AM43 °FScattered showers. Scattered clouds.9 mph61%29.68 "HgN/A
7:00 AM41 °FSprinkles. Broken clouds.14 mph70%29.68 "HgN/A
Weather by CustomWeather, © 2015

See weather overviewHow to use our weather pages